| time (UTC) | temp C | wind direction | speed KPH | gust KPH | rain 1hr cm | rain 24hr cm | rain mn cm | humidity % | barometer mb |
| 20260506050515 | 8 | 0.0 | 0.0 | 0.00 | 1.07 | 0.58 | |||
| 20260506044516 | 8 | 0.0 | 0.0 | 0.03 | 1.07 | 0.58 | |||
| 20260506043515 | 8 | 0.0 | 0.0 | 0.03 | 1.07 | 0.58 | |||
| 20260506042515 | 8 | 0.0 | 0.0 | 0.03 | 1.07 | 0.58 | |||
| 20260506041515 | 8 | 0.0 | 0.0 | 0.03 | 1.07 | 0.58 | |||
| 20260506040515 | 8 | 0.0 | 0.0 | 0.03 | 1.07 | 0.58 | |||
| 20260506035515 | 8 | 0.0 | 0.0 | 0.00 | 1.04 | 0.56 | |||
| 20260506034515 | 8 | 0.0 | 0.0 | 0.03 | 1.04 | 0.56 | |||
| 20260506033515 | 8 | 0.0 | 0.0 | 0.03 | 1.04 | 0.56 | |||
| 20260506032515 | 8 | 0.0 | 0.0 | 0.05 | 1.04 | 0.56 | |||
| 20260506031515 | 8 | 0.0 | 0.0 | 0.05 | 1.04 | 0.56 | |||
| 20260506030556 | 8 | 0.0 | 0.0 | 0.05 | 1.04 | 0.56 | |||
| 20260506025515 | 8 | 0.0 | 0.0 | 0.05 | 1.04 | 0.56 | |||
| 20260506024516 | 8 | 0.0 | 0.0 | 0.03 | 1.02 | 0.53 | |||
| 20260506023535 | 8 | 0.0 | 0.0 | 0.05 | 1.02 | 0.53 | |||
| 20260506022535 | 8 | 0.0 | 0.0 | 0.03 | 0.99 | 0.51 | |||
| 20260506021515 | 8 | 0.0 | 0.0 | 0.03 | 0.99 | 0.51 | |||
| 20260506020515 | 8 | 0.0 | 0.0 | 0.05 | 0.99 | 0.51 | |||
| 20260506015515 | 8 | 0.0 | 0.0 | 0.05 | 0.99 | 0.51 | |||
| 20260506014536 | 8 | 0.0 | 0.0 | 0.08 | 0.99 | 0.51 | |||
| 20260506013516 | 8 | 0.0 | 0.0 | 0.05 | 0.97 | 0.48 | |||
| 20260506012515 | 8 | 0.0 | 0.0 | 0.05 | 0.97 | 0.48 | |||
| 20260506011515 | 9 | 0.0 | 0.0 | 0.08 | 0.97 | 0.48 | |||
| 20260506010516 | 9 | 0.0 | 0.0 | 0.05 | 0.94 | 0.46 | |||
| 20260506005535 | 9 | 0.0 | 0.0 | 0.08 | 0.94 | 0.46 | |||
| 20260506004515 | 9 | 0.0 | 0.0 | 0.08 | 0.91 | 0.43 | |||
| 20260506003515 | 9 | 0.0 | 0.0 | 0.10 | 0.91 | 0.43 | |||
| 20260506002516 | 9 | 0.0 | 0.0 | 0.10 | 0.91 | 0.43 | |||
| 20260506001556 | 9 | 0.0 | 0.0 | 0.25 | 0.89 | 0.41 | |||
| 20260506000515 | 9 | 0.0 | 0.0 | 0.25 | 0.89 | 0.41 | |||
| 20260505235515 | 10 | 0.0 | 0.0 | 0.25 | 0.86 | 0.38 | |||
| 20260505234515 | 10 | 0.0 | 0.0 | 0.23 | 0.84 | 0.36 | |||
| 20260505233515 | 10 | 0.0 | 0.0 | 0.20 | 0.81 | 0.33 | |||
| 20260505232516 | 11 | 0.0 | 0.0 | 0.20 | 0.81 | 0.33 | |||
| 20260505231515 | 13 | 0.0 | 0.0 | 0.03 | 0.64 | 0.15 | |||
| 20260505230516 | 14 | 0.0 | 0.0 | 0.05 | 0.64 | 0.15 | |||
| 20260505225515 | 14 | 0.0 | 0.0 | 0.03 | 0.61 | 0.13 | |||
| 20260505224535 | 14 | 0.0 | 0.0 | 0.05 | 0.61 | 0.13 | |||
| 20260505223515 | 15 | 0.0 | 0.0 | 0.05 | 0.61 | 0.13 | |||
| 20260505222515 | 15 | 0.0 | 0.0 | 0.05 | 0.61 | 0.13 | |||
| 20260505221515 | 15 | 0.0 | 0.0 | 0.05 | 0.61 | 0.13 | |||
| 20260505220516 | 15 | 0.0 | 0.0 | 0.03 | 0.58 | 0.10 | |||
| 20260505215535 | 15 | 0.0 | 0.0 | 0.03 | 0.58 | 0.10 | |||
| 20260505214515 | 15 | 0.0 | 0.0 | 0.00 | 0.56 | 0.08 | |||
| 20260505213515 | 15 | 0.0 | 0.0 | 0.00 | 0.56 | 0.08 | |||
| 20260505212515 | 15 | 0.0 | 0.0 | 0.00 | 0.56 | 0.08 | |||
| 20260505211515 | 15 | 0.0 | 0.0 | 0.00 | 0.56 | 0.08 | |||
| 20260505210516 | 15 | 0.0 | 0.0 | 0.00 | 0.56 | 0.08 | |||
| 20260505205515 | 15 | 0.0 | 0.0 | 0.00 | 0.56 | 0.08 | |||
| 20260505204515 | 15 | 0.0 | 0.0 | 0.00 | 0.56 | 0.08 | |||
| 20260505203515 | 15 | 0.0 | 0.0 | 0.00 | 0.56 | 0.08 | |||
| 20260505202515 | 15 | 0.0 | 0.0 | 0.00 | 0.56 | 0.08 | |||
| 20260505201515 | 15 | 0.0 | 0.0 | 0.00 | 0.56 | 0.08 | |||
| 20260505200515 | 15 | 0.0 | 0.0 | 0.00 | 0.56 | 0.08 | |||
| 20260505195515 | 15 | 0.0 | 0.0 | 0.00 | 0.56 | 0.08 | |||
| 20260505194515 | 15 | 0.0 | 0.0 | 0.00 | 0.56 | 0.08 | |||
| 20260505193515 | 15 | 0.0 | 0.0 | 0.00 | 0.56 | 0.08 | |||
| 20260505192536 | 15 | 0.0 | 0.0 | 0.00 | 0.56 | 0.08 | |||
| 20260505191515 | 15 | 0.0 | 0.0 | 0.00 | 0.56 | 0.08 | |||
| 20260505190535 | 15 | 0.0 | 0.0 | 0.03 | 0.56 | 0.08 | |||
| 20260505185535 | 15 | 0.0 | 0.0 | 0.03 | 0.56 | 0.08 | |||
| 20260505184516 | 15 | 0.0 | 0.0 | 0.03 | 0.56 | 0.08 | |||
| 20260505183555 | 15 | 0.0 | 0.0 | 0.03 | 0.56 | 0.08 | |||
| 20260505182535 | 15 | 0.0 | 0.0 | 0.03 | 0.56 | 0.08 | |||
| 20260505181515 | 15 | 0.0 | 0.0 | 0.03 | 0.56 | 0.08 | |||
| 20260505180516 | 15 | 0.0 | 0.0 | 0.00 | 0.53 | 0.05 | |||
| 20260505175515 | 16 | 0.0 | 0.0 | 0.00 | 0.53 | 0.05 | |||
| 20260505174555 | 16 | 0.0 | 0.0 | 0.00 | 0.53 | 0.05 | |||
| 20260505173515 | 16 | 0.0 | 0.0 | 0.00 | 0.53 | 0.05 | |||
| 20260505172516 | 16 | 0.0 | 0.0 | 0.00 | 0.53 | 0.05 | |||
| 20260505171515 | 16 | 0.0 | 0.0 | 0.00 | 0.53 | 0.05 | |||
| 20260505170535 | 16 | 0.0 | 0.0 | 0.00 | 0.53 | 0.05 | |||
| 20260505165515 | 16 | 0.0 | 0.0 | 0.00 | 0.53 | 0.05 | |||
| 20260505164515 | 16 | 0.0 | 0.0 | 0.00 | 0.53 | 0.05 | |||
| 20260505163515 | 16 | 0.0 | 0.0 | 0.00 | 0.53 | 0.05 | |||
| 20260505162515 | 16 | 0.0 | 0.0 | 0.00 | 0.53 | 0.05 | |||
| 20260505161515 | 16 | 0.0 | 0.0 | 0.00 | 0.53 | 0.05 | |||
| 20260505160515 | 16 | 0.0 | 0.0 | 0.00 | 0.53 | 0.05 | |||
| 20260505152535 | 16 | 0.0 | 0.0 | 0.00 | 0.53 | 0.05 | |||
| 20260505151515 | 16 | 0.0 | 0.0 | 0.00 | 0.53 | 0.05 | |||
| 20260505150516 | 16 | 0.0 | 0.0 | 0.00 | 0.53 | 0.05 | |||
| 20260505140515 | 16 | 0.0 | 0.0 | 0.00 | 0.53 | 0.05 | |||
| 20260505124515 | 13 | 0.0 | 0.0 | 0.00 | 0.53 | 0.05 | |||
| 20260505123535 | 14 | 0.0 | 0.0 | 0.00 | 0.53 | 0.05 | |||
| 20260505122516 | 13 | 0.0 | 0.0 | 0.00 | 0.53 | 0.05 | |||
| 20260505121515 | 13 | 0.0 | 0.0 | 0.00 | 0.53 | 0.05 | |||
| 20260505120515 | 13 | 0.0 | 0.0 | 0.00 | 0.53 | 0.05 | |||
| 20260505115535 | 12 | 0.0 | 0.0 | 0.00 | 0.53 | 0.05 | |||
| 20260505114515 | 12 | 0.0 | 0.0 | 0.00 | 0.53 | 0.05 | |||
| 20260505113515 | 12 | 0.0 | 0.0 | 0.00 | 0.53 | 0.05 | |||
| 20260505112535 | 12 | 0.0 | 0.0 | 0.00 | 0.53 | 0.05 | |||
| 20260505111515 | 12 | 0.0 | 0.0 | 0.00 | 0.53 | 0.05 | |||
| 20260505110535 | 12 | 0.0 | 0.0 | 0.00 | 0.53 | 0.05 | |||
| 20260505101515 | 12 | 0.0 | 0.0 | 0.00 | 0.53 | 0.05 | |||
| 20260505100515 | 12 | 0.0 | 0.0 | 0.03 | 0.53 | 0.05 | |||
| 20260505095535 | 12 | 0.0 | 0.0 | 0.05 | 0.53 | 0.05 | |||
| 20260505094516 | 12 | 0.0 | 0.0 | 0.13 | 0.53 | 0.05 | |||
| 20260505093515 | 12 | 0.0 | 0.0 | 0.18 | 0.53 | 0.05 | |||
| 20260505092535 | 12 | 0.0 | 0.0 | 0.20 | 0.53 | 0.05 | |||
| 20260505091515 | 12 | 0.0 | 0.0 | 0.25 | 0.53 | 0.05 | |||
| 20260505090515 | 12 | 0.0 | 0.0 | 0.28 | 0.51 | 0.03 | |||
| 20260505085515 | 12 | 0.0 | 0.0 | 0.41 | 0.48 | 0.48 | |||
| 20260505083515 | 13 | 0.0 | 0.0 | 0.28 | 0.36 | 0.36 | |||
| 20260505082515 | 13 | 0.0 | 0.0 | 0.25 | 0.33 | 0.33 | |||
| 20260505081515 | 13 | 0.0 | 0.0 | 0.23 | 0.28 | 0.28 | |||
| 20260505080515 | 13 | 0.0 | 0.0 | 0.23 | 0.23 | 0.23 | |||
| 20260505075515 | 13 | 0.0 | 0.0 | 0.08 | 0.08 | 0.08 | |||
| 20260505074515 | 13 | 0.0 | 0.0 | 0.08 | 0.08 | 0.08 | |||
| 20260505073515 | 13 | 0.0 | 0.0 | 0.08 | 0.08 | 0.08 | |||
| 20260505072516 | 13 | 0.0 | 0.0 | 0.08 | 0.08 | 0.08 | |||
| 20260505071515 | 15 | 0.0 | 0.0 | 0.05 | 0.05 | 0.05 | |||
| 20260505070515 | 16 | 0.0 | 0.0 | 0.00 | 0.00 | 0.00 | |||
| 20260505065515 | 16 | 0.0 | 0.0 | 0.00 | 0.00 | 0.00 | |||
| 20260505064515 | 16 | 0.0 | 0.0 | 0.00 | 0.00 | 0.00 | |||
| 20260505063515 | 17 | 0.0 | 0.0 | 0.00 | 0.00 | 0.00 | |||
| 20260505062516 | 17 | 0.0 | 0.0 | 0.00 | 0.00 | 0.00 | |||
| 20260505061515 | 18 | 0.0 | 0.0 | 0.00 | 0.00 | 0.00 | |||
| 20260505060535 | 18 | 0.0 | 0.0 | 0.00 | 0.00 | 0.00 |